Location: *
(43.7000°S, 168.7000°W)
Time: 14:59:05
(UTC+00:00)

NOSS 3-1 (A) - Pass Details

Date: 07 July 2020
Orbit: 755 x 1458 km, 63.4° (Epoch: 16 June)

Event Time Altitude Azimuth Distance (km) Brightness Sun altitude
Exits shadow 17:56:48 - 216° (SW) 3,254 5.7 -9.0°
Reaches altitude 10° 17:58:01 10° 215° (SW) 2,800 5.4 -8.8°
Maximum altitude 18:04:29 77° 129° (SE) 917 3.5 -7.8°
Drops below altitude 10° 18:09:58 10° 41° (NE) 2,393 6.8 -6.8°
Sets 18:12:15 0° 40° (NE) 3,269 7.6 -6.5°
